Patuxent River, MD

5:19 PM EDT on March 26, 2017 (GMT -0400)
Patuxent River Naval Air Station

Weather History for KNHK - October, 2011

Change the Weather History Date:

Sunday, October 9, 2011

  Actual Average Record
Temperature  
Mean Temperature 62 °F -  
Max Temperature 78 °F 70 °F 93 °F (2007)
Min Temperature 48 °F 50 °F 34 °F (2001)
Degree Days  
Heating Degree Days 4    
Growing Degree Days 12 (Base 50)    
Moisture  
Dew Point 51 °F    
Average Humidity 73    
Maximum Humidity 97    
Minimum Humidity 40    
Precipitation  
Precipitation 0.00 in - - ()
Sea Level Pressure  
Sea Level Pressure 30.41 in    
Wind  
Wind Speed 3 mph (WSW)    
Max Wind Speed 6 mph    
Max Gust Speed -    
Visibility 10 miles    
Events      
Averages and records for this station are not official NWS values.
T = Trace of Precipitation, MM = Missing Value Source: NWS Daily Summary

Daily Weather History Graph

Daily Weather History Graph

Search for Another Location

Airport or City:

Trip Planner

Search our weather history database for the weather conditions in past years. The results will help you decide how hot, cold, wet, or windy it might be!

Date:

Astronomy

Oct. 09, 2011 Rise Set
Actual Time 7:08 AM EDT 6:36 PM EDT
Civil Twilight 6:42 AM EDT 7:03 PM EDT
Nautical Twilight 6:11 AM EDT 7:33 PM EDT
Astronomical Twilight 5:40 AM EDT 8:04 PM EDT
Moon 5:11 PM EDT (10/9) 4:52 AM EDT (10/9)
Length of Visible Light 12h 21m
Length of Day
11h 28m
Waxing Gibbous, 95% of the Moon is Illuminated
Oct 9
Waxing Gibbous
Oct 11
Full
Oct 19
Last Quarter
Oct 26
New
Nov 2
First Quarter

Hourly Weather History & Observations

Time (EDT) Temp. Dew Point Humidity Pressure Visibility Wind Dir Wind Speed Gust Speed Precip Events Conditions
12:52 AM 50.0 °F 46.0 °F 86% 30.47 in 10.0 mi SSW 4.6 mph - N/A   Clear
1:52 AM 48.9 °F 45.0 °F 86% 30.45 in 10.0 mi Calm Calm - N/A   Clear
2:52 AM 48.0 °F 45.0 °F 89% 30.45 in 10.0 mi SW 3.5 mph - N/A   Clear
3:52 AM 48.9 °F 46.9 °F 93% 30.44 in 10.0 mi WSW 4.6 mph - N/A   Clear
4:52 AM 48.9 °F 48.0 °F 97% 30.43 in 10.0 mi West 3.5 mph - N/A   Clear
5:52 AM 52.0 °F 48.9 °F 89% 30.44 in 10.0 mi SW 4.6 mph - N/A   Clear
6:52 AM 50.0 °F 48.0 °F 93% 30.44 in 10.0 mi WSW 4.6 mph - N/A   Partly Cloudy
7:52 AM 52.0 °F 50.0 °F 93% 30.45 in 10.0 mi WSW 3.5 mph - N/A   Partly Cloudy
8:52 AM 62.1 °F 53.1 °F 72% 30.47 in 10.0 mi WNW 4.6 mph - N/A   Scattered Clouds
9:52 AM 64.9 °F 52.0 °F 63% 30.47 in 10.0 mi WNW 3.5 mph - N/A   Scattered Clouds
10:52 AM 68.0 °F 52.0 °F 56% 30.46 in 10.0 mi Calm Calm - N/A   Partly Cloudy
11:52 AM 73.0 °F 54.0 °F 51% 30.45 in 10.0 mi North 3.5 mph - N/A   Partly Cloudy
12:52 PM 75.9 °F 50.0 °F 40% 30.43 in 10.0 mi Calm Calm - N/A   Partly Cloudy
1:52 PM 75.9 °F 52.0 °F 43% 30.41 in 10.0 mi SE 5.8 mph - N/A   Partly Cloudy
2:52 PM 75.0 °F 50.0 °F 41% 30.38 in 10.0 mi East 4.6 mph - N/A   Partly Cloudy
3:52 PM 75.0 °F 53.1 °F 46% 30.36 in 10.0 mi East 4.6 mph - N/A   Scattered Clouds
4:52 PM 73.9 °F 55.9 °F 53% 30.35 in 10.0 mi East 3.5 mph - N/A   Scattered Clouds
5:52 PM 72.0 °F 54.0 °F 53% 30.35 in 10.0 mi Calm Calm - N/A   Scattered Clouds
6:52 PM 64.0 °F 55.0 °F 73% 30.35 in 10.0 mi Calm Calm - N/A   Clear
7:52 PM 60.1 °F 55.9 °F 86% 30.35 in 10.0 mi SW 3.5 mph - N/A   Clear
8:52 PM 57.9 °F 55.0 °F 90% 30.34 in 10.0 mi SW 4.6 mph - N/A   Clear
9:52 PM 55.9 °F 53.1 °F 90% 30.35 in 10.0 mi WSW 3.5 mph - N/A   Clear
10:52 PM 57.0 °F 54.0 °F 89% 30.33 in 10.0 mi Calm Calm - N/A   Clear
11:52 PM 57.9 °F 55.0 °F 90% 30.32 in 10.0 mi WSW 4.6 mph - N/A   Clear